When you browse on this site, cookies collect data to enhance your experience and personalize the content and advertising you see.
Visit our Privacy Policy to learn more. By continuing to use the site, you agree to this use of cookies and data.
  • In Portugal
  • List of Countries
  • For 7 days
  • Water Temperature
  • Satellite Maps
  • Weather Map
  • Weather Widgets
  • user-avatar
    Login

    Hourly Weather Pnevichi

    Today, 21 March, Thursday

    Time Temperature Precipitation Wind Pressure Humidity
    00:00 -1°C° 0.1 mm 4 mps 748 mmHg 72%
    01:00 -1°C° 0.1 mm 4 mps 748 mmHg 73%
    02:00 -1°C° 0.1 mm 5 mps 747 mmHg 74%
    03:00 -1°C° 0.6 mm 5 mps 747 mmHg 78%
    04:00 -1°C° 0.6 mm 5 mps 746 mmHg 81%
    05:00 -2°C° 0.6 mm 6 mps 746 mmHg 85%
    06:00 0°C° 0 mm 5 mps 746 mmHg 86%
    07:00 0°C° 0 mm 5 mps 746 mmHg 87%
    08:00 +1°C° 0 mm 5 mps 746 mmHg 88%
    09:00 +2°C° 0 mm 5 mps 747 mmHg 83%
    10:00 +3°C° 0 mm 5 mps 747 mmHg 78%
    11:00 +4°C° 0 mm 6 mps 747 mmHg 73%
    12:00 +4°C° 0 mm 6 mps 747 mmHg 69%
    13:00 +6°C° 0 mm 5 mps 748 mmHg 64%
    14:00 +7°C° 0 mm 5 mps 748 mmHg 60%
    15:00 +7°C° 0 mm 4 mps 748 mmHg 61%
    16:00 +6°C° 0 mm 4 mps 747 mmHg 63%
    17:00 +7°C° 0 mm 3 mps 747 mmHg 65%
    18:00 +5°C° 0 mm 3 mps 747 mmHg 69%
    19:00 +5°C° 0 mm 2 mps 747 mmHg 72%
    20:00 +4°C° 0 mm 2 mps 747 mmHg 76%
    21:00 +3°C° 0.1 mm 3 mps 747 mmHg 79%
    22:00 +3°C° 0.1 mm 3 mps 746 mmHg 81%
    23:00 +3°C° 0.1 mm 3 mps 746 mmHg 84%

    Tomorrow, 22 March, Friday

    Time Temperature Precipitation Wind Pressure Humidity
    00:00 +3°C° 0.4 mm 4 mps 745 mmHg 86%
    01:00 +3°C° 0.4 mm 4 mps 745 mmHg 88%
    02:00 +3°C° 0.4 mm 4 mps 744 mmHg 91%
    03:00 +3°C° 0.5 mm 5 mps 744 mmHg 91%
    04:00 +3°C° 0.5 mm 5 mps 743 mmHg 92%
    05:00 +4°C° 0.5 mm 6 mps 743 mmHg 93%
    06:00 +4°C° 0.1 mm 6 mps 743 mmHg 90%
    07:00 +4°C° 0.1 mm 7 mps 743 mmHg 87%
    08:00 +5°C° 0.1 mm 7 mps 743 mmHg 84%
    09:00 +4°C° 0 mm 8 mps 744 mmHg 76%
    10:00 +3°C° 0 mm 9 mps 744 mmHg 67%
    11:00 +3°C° 0 mm 10 mps 745 mmHg 58%
    12:00 +3°C° 0 mm 10 mps 745 mmHg 53%
    13:00 +3°C° 0 mm 10 mps 745 mmHg 48%
    14:00 +3°C° 0 mm 10 mps 746 mmHg 43%
    15:00 +2°C° 0 mm 9 mps 746 mmHg 44%
    16:00 +2°C° 0 mm 8 mps 746 mmHg 46%
    17:00 +1°C° 0 mm 8 mps 746 mmHg 47%
    18:00 +2°C° 0 mm 7 mps 746 mmHg 51%
    19:00 0°C° 0 mm 7 mps 746 mmHg 54%
    20:00 -1°C° 0 mm 6 mps 747 mmHg 58%
    21:00 -1°C° 0 mm 6 mps 747 mmHg 61%
    22:00 -2°C° 0 mm 7 mps 747 mmHg 64%
    23:00 -3°C° 0 mm 7 mps 747 mmHg 67%

    Day after tomorrow, 23 March, Saturday

    Time Temperature Precipitation Wind Pressure Humidity
    00:00 -3°C° 0 mm 6 mps 747 mmHg 69%
    01:00 -3°C° 0 mm 6 mps 747 mmHg 72%
    02:00 -4°C° 0 mm 6 mps 747 mmHg 74%
    03:00 -4°C° 0 mm 6 mps 747 mmHg 75%
    04:00 -4°C° 0 mm 6 mps 747 mmHg 77%
    05:00 -4°C° 0 mm 6 mps 747 mmHg 78%
    06:00 -3°C° 0 mm 6 mps 748 mmHg 76%
    07:00 -3°C° 0 mm 6 mps 748 mmHg 75%
    08:00 -2°C° 0 mm 5 mps 748 mmHg 73%
    09:00 -1°C° 0 mm 5 mps 748 mmHg 69%
    10:00 0°C° 0 mm 4 mps 748 mmHg 66%
    11:00 +3°C° 0 mm 4 mps 748 mmHg 62%
    12:00 +3°C° 0 mm 4 mps 748 mmHg 59%
    13:00 +4°C° 0 mm 3 mps 748 mmHg 57%
    14:00 +5°C° 0 mm 3 mps 747 mmHg 54%
    15:00 +6°C° 0 mm 2 mps 747 mmHg 56%
    16:00 +6°C° 0 mm 2 mps 747 mmHg 57%
    17:00 +7°C° 0 mm 1 mps 747 mmHg 58%
    18:00 +5°C° 0 mm 2 mps 746 mmHg 60%
    19:00 +4°C° 0 mm 2 mps 746 mmHg 61%
    20:00 +4°C° 0 mm 2 mps 746 mmHg 63%
    21:00 +3°C° 0 mm 3 mps 745 mmHg 62%
    22:00 +3°C° 0 mm 3 mps 745 mmHg 62%
    23:00 +3°C° 0 mm 4 mps 744 mmHg 61%

    24 March, Sunday

    Time Temperature Precipitation Wind Pressure Humidity
    00:00 +3°C° 1 mm 4 mps 744 mmHg 69%
    01:00 +3°C° 1 mm 4 mps 743 mmHg 76%
    02:00 +1°C° 1 mm 4 mps 743 mmHg 83%
    03:00 +3°C° 0.1 mm 4 mps 743 mmHg 86%
    04:00 +2°C° 0.1 mm 5 mps 743 mmHg 88%
    05:00 +3°C° 0.1 mm 5 mps 743 mmHg 91%
    06:00 +3°C° 0 mm 5 mps 743 mmHg 84%
    07:00 +2°C° 0 mm 6 mps 744 mmHg 77%
    08:00 +2°C° 0 mm 6 mps 744 mmHg 70%
    09:00 +3°C° 0 mm 6 mps 745 mmHg 62%
    10:00 +4°C° 0 mm 6 mps 745 mmHg 54%
    11:00 +5°C° 0 mm 6 mps 745 mmHg 46%
    12:00 +5°C° 0 mm 6 mps 745 mmHg 45%
    13:00 +5°C° 0 mm 6 mps 745 mmHg 44%
    14:00 +7°C° 0 mm 6 mps 745 mmHg 42%
    15:00 +6°C° 0 mm 5 mps 745 mmHg 43%
    16:00 +6°C° 0 mm 4 mps 745 mmHg 44%
    17:00 +7°C° 0 mm 3 mps 745 mmHg 45%
    18:00 +4°C° 0 mm 3 mps 746 mmHg 49%
    19:00 +3°C° 0 mm 3 mps 746 mmHg 54%
    20:00 +3°C° 0 mm 2 mps 746 mmHg 58%
    21:00 +3°C° 0 mm 2 mps 746 mmHg 60%
    22:00 +2°C° 0 mm 2 mps 745 mmHg 62%
    23:00 +2°C° 0 mm 2 mps 745 mmHg 64%

    25 March, Monday

    Time Temperature Precipitation Wind Pressure Humidity
    00:00 +1°C° 0 mm 2 mps 745 mmHg 66%
    01:00 +1°C° 0 mm 2 mps 745 mmHg 68%
    02:00 -1°C° 0 mm 2 mps 745 mmHg 70%
    03:00 -1°C° 0 mm 2 mps 744 mmHg 71%
    04:00 -1°C° 0 mm 2 mps 744 mmHg 71%
    05:00 +1°C° 0 mm 1 mps 744 mmHg 72%
    06:00 +2°C° 0 mm 1 mps 744 mmHg 69%
    07:00 +3°C° 0 mm 1 mps 743 mmHg 66%
    08:00 +3°C° 0 mm 1 mps 743 mmHg 63%
    09:00 +3°C° 0 mm 2 mps 743 mmHg 58%
    10:00 +4°C° 0 mm 3 mps 742 mmHg 53%
    11:00 +5°C° 0 mm 4 mps 742 mmHg 48%
    12:00 +5°C° 0.1 mm 4 mps 741 mmHg 49%
    13:00 +5°C° 0.1 mm 4 mps 741 mmHg 49%
    14:00 +5°C° 0.1 mm 4 mps 740 mmHg 50%
    15:00 +5°C° 0.1 mm 4 mps 739 mmHg 54%
    16:00 +4°C° 0.1 mm 3 mps 739 mmHg 57%
    17:00 +4°C° 0.1 mm 3 mps 738 mmHg 61%
    18:00 +3°C° 0 mm 3 mps 738 mmHg 67%
    19:00 +2°C° 0 mm 3 mps 737 mmHg 72%
    20:00 +1°C° 0 mm 3 mps 737 mmHg 78%
    21:00 +1°C° 0 mm 3 mps 736 mmHg 81%
    22:00 0°C° 0 mm 3 mps 736 mmHg 84%
    23:00 -1°C° 0 mm 4 mps 735 mmHg 87%

    26 March, Tuesday

    Time Temperature Precipitation Wind Pressure Humidity
    00:00 -1°C° 0 mm 4 mps 734 mmHg 87%
    01:00 -1°C° 0 mm 4 mps 734 mmHg 87%
    02:00 -1°C° 0 mm 4 mps 733 mmHg 87%
    03:00 -1°C° 0.1 mm 4 mps 733 mmHg 88%
    04:00 -1°C° 0.1 mm 4 mps 732 mmHg 89%
    05:00 -2°C° 0.1 mm 5 mps 732 mmHg 90%
    06:00 -1°C° 1.2 mm 5 mps 731 mmHg 91%
    07:00 -1°C° 1.2 mm 5 mps 731 mmHg 91%
    08:00 -1°C° 1.2 mm 5 mps 731 mmHg 92%
    09:00 0°C° 0.7 mm 4 mps 731 mmHg 93%
    10:00 +1°C° 0.7 mm 3 mps 731 mmHg 95%
    11:00 +1°C° 0.7 mm 3 mps 731 mmHg 97%
    12:00 +2°C° 0.4 mm 2 mps 731 mmHg 97%
    13:00 +2°C° 0.4 mm 2 mps 731 mmHg 97%
    14:00 +2°C° 0.4 mm 2 mps 731 mmHg 97%
    15:00 +1°C° 0.8 mm 3 mps 731 mmHg 96%
    16:00 +1°C° 0.8 mm 3 mps 731 mmHg 95%
    17:00 -1°C° 0.8 mm 4 mps 732 mmHg 94%
    18:00 0°C° 0.5 mm 3 mps 732 mmHg 94%
    19:00 0°C° 0.5 mm 3 mps 732 mmHg 95%
    20:00 0°C° 0.5 mm 3 mps 733 mmHg 95%
    21:00 0°C° 0.3 mm 3 mps 733 mmHg 96%
    22:00 0°C° 0.3 mm 3 mps 734 mmHg 96%
    23:00 0°C° 0.3 mm 3 mps 734 mmHg 97%
    Show more